GW3644 Weather Reports


time (UTC)temp
C
wind
direction
speed
KPH
gust
KPH
rain 1hr
cm
rain 24hr
cm
rain mn
cm
humidity
%
barometer
mb
20260508023503 7 3 1.6 4.8 0.00 0.00 0.00 65 1015.4
20260508023217 8 244 0.0 3.2 0.00 0.00 0.00 67 1015.3
20260508022503 8 260 0.0 4.8 0.00 0.00 0.00 66 1015.1
20260508022003 8 313 0.0 4.8 0.00 0.00 0.00 65 1015.1
20260508021503 8 330 0.0 4.8 0.00 0.00 0.00 66 1015.2
20260508021003 8 0 0.0 0.0 0.00 0.00 0.00 65 1015.1
20260508020503 8 321 1.6 8.0 0.00 0.00 0.00 63 1014.9
20260508020003 8 278 0.0 8.0 0.00 0.00 0.00 63 1015.1
20260508015503 9 272 1.6 4.8 0.00 0.00 0.00 63 1015.0
20260508015218 9 280 1.6 4.8 0.00 0.00 0.00 61 1014.8
20260508014503 9 332 3.2 8.0 0.00 0.00 0.00 60 1014.8
20260508014003 9 311 0.0 11.3 0.00 0.00 0.00 59 1014.8
20260508013503 9 320 4.8 12.9 0.00 0.00 0.00 58 1014.9
20260508013218 9 9 1.6 12.9 0.00 0.00 0.00 58 1014.8
20260508012503 10 326 0.0 4.8 0.00 0.00 0.00 57 1014.7
20260508012003 10 321 0.0 8.0 0.00 0.00 0.00 55 1014.5
20260508011503 10 321 3.2 8.0 0.00 0.00 0.00 53 1014.4
20260508011218 10 296 1.6 4.8 0.00 0.00 0.00 53 1014.5
20260508010503 10 294 1.6 11.3 0.00 0.00 0.00 52 1014.4
20260508010003 10 301 4.8 8.0 0.00 0.00 0.00 51 1014.2
20260508005503 10 304 3.2 12.9 0.00 0.00 0.00 50 1014.3
20260508005218 11 326 6.4 16.1 0.00 0.00 0.00 49 1014.1
20260508004503 11 315 12.9 22.5 0.00 0.00 0.00 48 1014.1
20260508004218 11 314 9.7 27.4 0.00 0.00 0.00 48 1014.1
20260508003503 11 323 8.0 16.1 0.00 0.00 0.00 49 1014.1
20260508003003 11 322 12.9 24.1 0.00 0.00 0.00 48 1013.8
20260508002503 11 295 17.7 30.6 0.00 0.00 0.00 48 1013.9
20260508002003 11 325 11.3 19.3 0.00 0.00 0.00 48 1013.6
20260508001503 11 302 12.9 19.3 0.00 0.00 0.00 47 1013.5
20260508001003 12 308 20.9 41.8 0.00 0.00 0.00 46 1013.5
20260508000503 12 321 14.5 22.5 0.00 0.00 0.00 47 1013.4
20260508000003 12 305 12.9 24.1 0.00 0.00 0.00 47 1013.3
20260507235503 12 325 14.5 33.8 0.00 0.00 0.00 46 1013.4
20260507235003 12 313 12.9 46.7 0.00 0.00 0.00 46 1013.1
20260507234503 12 311 11.3 24.1 0.00 0.00 0.00 46 1013.4
20260507234003 12 282 11.3 22.5 0.00 0.00 0.00 46 1013.3
20260507233503 12 315 17.7 33.8 0.00 0.00 0.00 45 1013.2
20260507233217 12 291 12.9 24.1 0.00 0.00 0.00 46 1013.1
20260507232503 12 312 16.1 22.5 0.00 0.00 0.00 46 1013.0
20260507232003 12 338 6.4 12.9 0.00 0.00 0.00 46 1013.0
20260507231503 12 323 9.7 22.5 0.00 0.00 0.00 45 1012.9
20260507231003 13 308 17.7 27.4 0.00 0.00 0.00 45 1012.7
20260507230503 13 314 8.0 12.9 0.00 0.00 0.00 44 1012.6
20260507230005 13 316 16.1 24.1 0.00 0.00 0.00 43 1012.6
20260507225503 13 302 9.7 22.5 0.00 0.00 0.00 44 1012.9
20260507225217 13 300 11.3 22.5 0.00 0.00 0.00 45 1012.7
20260507224504 13 294 11.3 22.5 0.00 0.00 0.00 44 1012.5
20260507224003 13 279 11.3 22.5 0.00 0.00 0.00 43 1012.3
20260507223503 13 311 12.9 30.6 0.00 0.00 0.00 42 1012.5
20260507223219 14 307 11.3 24.1 0.00 0.00 0.00 42 1012.5
20260507222718 14 294 14.5 27.4 0.00 0.00 0.00 42 1012.4
20260507222003 13 301 16.1 27.4 0.00 0.00 0.00 42 1012.3
20260507221503 14 318 22.5 33.8 0.00 0.00 0.00 40 1012.3
20260507221217 15 298 11.3 33.8 0.00 0.00 0.00 39 1012.3
20260507220503 15 300 9.7 19.3 0.00 0.00 0.00 39 1012.3
20260507220003 15 342 12.9 35.4 0.00 0.00 0.00 41 1012.2
20260507215718 15 300 8.0 19.3 0.00 0.00 0.00 39 1012.1
20260507215003 14 329 20.9 43.5 0.00 0.00 0.00 40 1011.9
20260507214503 14 301 17.7 22.5 0.00 0.00 0.00 41 1012.0
20260507214217 15 293 8.0 24.1 0.00 0.00 0.00 40 1011.7
20260507213504 14 316 12.9 35.4 0.00 0.00 0.00 40 1012.0
20260507213003 14 332 12.9 24.1 0.00 0.00 0.00 41 1011.7
20260507212503 14 303 12.9 22.5 0.00 0.00 0.00 42 1011.7
20260507212003 14 311 4.8 22.5 0.00 0.00 0.00 43 1012.0
20260507211718 15 320 17.7 22.5 0.00 0.00 0.00 40 1012.1
20260507211003 14 327 20.9 27.4 0.00 0.00 0.00 39 1011.9
20260507210718 14 319 11.3 24.1 0.00 0.00 0.00 40 1011.7
20260507210003 14 326 11.3 16.1 0.00 0.00 0.00 39 1011.7
20260507205503 15 329 6.4 19.3 0.00 0.00 0.00 41 1011.7
20260507205216 15 325 9.7 24.1 0.00 0.00 0.00 40 1011.6
20260507204503 15 310 11.3 22.5 0.00 0.00 0.00 41 1011.8
20260507204216 15 318 14.5 27.4 0.00 0.00 0.00 37 1011.9
20260507203503 15 283 11.3 30.6 0.00 0.00 0.00 40 1011.6
20260507203003 15 290 16.1 27.4 0.00 0.00 0.00 40 1011.8
20260507202504 15 301 12.9 19.3 0.00 0.00 0.00 40 1011.7
20260507202216 14 231 9.7 19.3 0.00 0.00 0.00 41 1011.9
20260507201503 15 271 11.3 24.1 0.00 0.00 0.00 38 1011.8
20260507201003 16 256 17.7 27.4 0.00 0.00 0.00 38 1011.8
20260507200503 16 239 14.5 22.5 0.00 0.00 0.00 40 1011.6
20260507200003 16 304 6.4 19.3 0.00 0.00 0.00 40 1011.9
20260507195503 15 321 16.1 33.8 0.00 0.00 0.00 40 1011.9
20260507195003 15 317 19.3 30.6 0.00 0.00 0.00 42 1012.1
20260507194503 15 328 11.3 33.8 0.00 0.00 0.00 40 1011.9
20260507194003 16 273 12.9 16.1 0.00 0.00 0.00 41 1012.1
20260507193503 15 300 14.5 22.5 0.00 0.00 0.00 41 1011.9
20260507193003 16 217 14.5 24.1 0.00 0.00 0.00 42 1012.2
20260507192503 16 275 16.1 30.6 0.00 0.00 0.00 40 1012.2
20260507192003 16 252 11.3 24.1 0.00 0.00 0.00 40 1012.0
20260507191717 15 251 14.5 24.1 0.00 0.00 0.00 41 1012.2
20260507191003 14 258 9.7 22.5 0.00 0.00 0.00 42 1012.0
20260507190503 14 259 12.9 24.1 0.00 0.00 0.00 41 1012.1
20260507190004 14 282 11.3 24.1 0.00 0.00 0.00 42 1012.2
20260507185503 15 301 17.7 24.1 0.00 0.00 0.00 42 1012.0
20260507185003 14 319 6.4 19.3 0.00 0.00 0.00 44 1012.3
20260507184719 14 329 11.3 19.3 0.00 0.00 0.00 44 1012.2
20260507184003 15 248 8.0 22.5 0.00 0.00 0.00 43 1012.3
20260507183503 16 217 19.3 33.8 0.00 0.00 0.00 44 1012.4
20260507183003 16 226 9.7 19.3 0.00 0.00 0.00 44 1012.4
20260507182503 15 277 9.7 19.3 0.00 0.00 0.00 43 1012.1
20260507182003 15 267 12.9 24.1 0.00 0.00 0.00 43 1012.4
20260507181503 14 271 11.3 19.3 0.00 0.00 0.00 44 1012.4
20260507181004 15 320 11.3 22.5 0.00 0.00 0.00 42 1012.3
20260507180503 13 317 11.3 35.4 0.00 0.00 0.00 46 1012.6
20260507180003 14 343 16.1 35.4 0.00 0.00 0.00 46 1012.4
20260507175503 13 331 11.3 22.5 0.00 0.00 0.00 45 1012.4
20260507175003 14 308 11.3 12.9 0.00 0.00 0.00 45 1013.0
20260507174503 14 302 9.7 19.3 0.00 0.00 0.00 46 1012.7
20260507174003 13 247 8.0 19.3 0.00 0.00 0.00 44 1012.7
20260507173503 15 251 14.5 22.5 0.00 0.00 0.00 43 1012.9
20260507173003 15 230 16.1 24.1 0.00 0.00 0.00 45 1013.0
20260507172503 14 240 16.1 24.1 0.00 0.00 0.00 46 1013.0
20260507172003 15 263 19.3 27.4 0.00 0.00 0.00 44 1013.0
20260507171504 15 202 9.7 19.3 0.00 0.00 0.00 50 1013.2
20260507171003 13 225 11.3 19.3 0.00 0.00 0.00 50 1013.1
20260507170503 13 219 20.9 33.8 0.00 0.00 0.00 49 1013.2
20260507170003 13 220 12.9 22.5 0.00 0.00 0.00 48 1013.3
20260507165504 13 246 17.7 19.3 0.00 0.00 0.00 50 1013.3
20260507165003 13 234 17.7 22.5 0.00 0.00 0.00 49 1013.3
20260507164503 13 203 9.7 33.8 0.00 0.00 0.00 47 1013.5
20260507164003 15 221 14.5 22.5 0.00 0.00 0.00 49 1013.3
20260507163503 13 300 16.1 19.3 0.00 0.00 0.00 48 1013.3
20260507163003 13 303 8.0 19.3 0.00 0.00 0.00 50 1013.5
20260507162503 13 259 11.3 22.5 0.00 0.00 0.00 47 1013.5
20260507162003 14 266 8.0 19.3 0.00 0.00 0.00 52 1013.5
20260507161503 13 236 4.8 19.3 0.00 0.00 0.00 49 1013.5
20260507161003 13 249 12.9 22.5 0.00 0.00 0.00 48 1013.6
20260507160503 13 204 6.4 19.3 0.00 0.00 0.00 52 1013.7
20260507160003 13 200 22.5 33.8 0.00 0.00 0.00 48 1013.6
20260507155717 14 191 14.5 30.6 0.00 0.00 0.00 46 1013.8
20260507155003 13 215 9.7 12.9 0.00 0.00 0.00 49 1013.8
20260507154504 12 241 9.7 12.9 0.00 0.00 0.00 50 1013.8
20260507154003 12 246 11.3 16.1 0.00 0.00 0.00 49 1014.1
20260507153504 12 202 4.8 12.9 0.00 0.00 0.00 52 1014.0
20260507153003 12 237 12.9 16.1 0.00 0.00 0.00 50 1013.9
20260507152504 12 245 11.3 19.3 0.00 0.00 0.00 50 1014.3
20260507152003 12 261 8.0 16.1 0.00 0.00 0.00 51 1014.2
20260507151503 13 221 6.4 11.3 0.00 0.00 0.00 55 1014.1
20260507151216 12 254 4.8 11.3 0.00 0.00 0.00 52 1014.3
20260507150503 12 250 3.2 12.9 0.00 0.00 0.00 54 1014.3
20260507150003 12 205 14.5 22.5 0.00 0.00 0.00 54 1014.3
20260507145503 12 209 17.7 30.6 0.00 0.00 0.00 55 1014.4
20260507145003 11 219 9.7 24.1 0.00 0.00 0.00 58 1014.5
20260507144503 11 236 8.0 16.1 0.00 0.00 0.00 55 1014.6
20260507144218 11 245 11.3 22.5 0.00 0.00 0.00 54 1014.7
20260507143503 11 246 11.3 22.5 0.00 0.00 0.00 56 1014.7
20260507143003 12 224 11.3 22.5 0.00 0.00 0.00 54 1014.9
20260507142503 12 313 14.5 27.4 0.00 0.00 0.00 55 1014.8
20260507142003 12 206 8.0 16.1 0.00 0.00 0.00 56 1014.6
20260507141503 12 327 8.0 22.5 0.00 0.00 0.00 59 1014.8
20260507141003 12 196 4.8 11.3 0.00 0.00 0.00 58 1015.0
20260507140503 12 201 6.4 12.9 0.00 0.00 0.00 59 1015.2
20260507140218 12 216 6.4 12.9 0.00 0.00 0.00 59 1015.0
20260507135503 11 247 9.7 16.1 0.00 0.00 0.00 61 1015.0
20260507135003 11 308 4.8 16.1 0.00 0.00 0.00 61 1015.1
20260507134504 11 215 6.4 12.9 0.00 0.00 0.00 61 1015.1
20260507134003 11 194 11.3 16.1 0.00 0.00 0.00 63 1015.1
20260507133717 11 256 6.4 12.9 0.00 0.00 0.00 62 1015.2
20260507133218 11 234 8.0 12.9 0.00 0.00 0.00 61 1015.2
20260507132504 10 220 12.9 22.5 0.00 0.03 0.00 64 1015.3
20260507132003 10 225 9.7 19.3 0.00 0.03 0.00 63 1015.3
20260507131503 10 213 6.4 12.9 0.00 0.03 0.00 66 1015.3
20260507131004 10 189 8.0 16.1 0.00 0.03 0.00 69 1015.4
20260507130503 10 196 11.3 16.1 0.00 0.05 0.00 66 1015.3
20260507130217 10 203 11.3 19.3 0.00 0.05 0.00 65 1015.6
20260507125503 10 184 16.1 22.5 0.00 0.05 0.00 69 1015.3
20260507125003 8 186 8.0 12.9 0.00 0.05 0.00 74 1015.4
20260507124503 8 181 9.7 16.1 0.00 0.05 0.00 74 1015.4
20260507124003 8 193 11.3 16.1 0.00 0.05 0.00 75 1015.4
20260507123503 8 183 11.3 16.1 0.00 0.05 0.00 76 1015.3
20260507123003 8 191 12.9 16.1 0.00 0.05 0.00 76 1015.4
20260507122503 8 190 12.9 16.1 0.00 0.05 0.00 78 1015.4
20260507122003 7 181 9.7 12.9 0.00 0.05 0.00 80 1015.4
20260507121503 7 204 8.0 16.1 0.00 0.05 0.00 82 1015.4
20260507121003 7 181 9.7 12.9 0.00 0.05 0.00 84 1015.3
20260507120503 7 174 6.4 11.3 0.00 0.10 0.00 85 1015.4
20260507120004 6 180 8.0 11.3 0.00 0.10 0.00 87 1015.3
20260507115503 6 191 8.0 8.0 0.00 0.10 0.00 89 1015.6
20260507115003 6 168 4.8 4.8 0.00 0.13 0.00 92 1015.2
20260507114503 6 135 3.2 4.8 0.00 0.13 0.00 95 1015.2
20260507114217 5 134 1.6 3.2 0.00 0.13 0.00 96 1015.3
20260507113504 5 0 0.0 0.0 0.00 0.13 0.00 100 1015.2
20260507113005 5 0 0.0 0.0 0.00 0.20 0.00 100 1015.3
20260507112503 4 0 0.0 0.0 0.00 0.28 0.00 100 1015.2
20260507112003 5 0 0.0 0.0 0.00 0.28 0.00 100 1015.1
20260507111718 4 0 0.0 0.0 0.00 0.28 0.00 100 1015.0
20260507111003 3 0 0.0 0.0 0.00 0.28 0.00 100 1015.0
20260507110504 3 0 0.0 0.0 0.00 0.28 0.00 100 1015.1
20260507110003 3 0 0.0 0.0 0.00 0.30 0.00 100 1015.1
20260507105503 2 133 3.2 12.9 0.00 0.30 0.00 100 1015.2
20260507105003 2 0 0.0 0.0 0.00 0.33 0.00 100 1014.9
20260507104503 2 0 0.0 0.0 0.00 0.38 0.00 100 1014.8
20260507104003 2 0 0.0 0.0 0.00 0.38 0.00 100 1014.9
20260507103503 2 0 0.0 0.0 0.00 0.43 0.00 100 1015.0
20260507103003 2 96 0.0 4.8 0.00 0.46 0.00 100 1014.7
20260507102503 2 0 0.0 0.0 0.00 0.48 0.00 100 1014.7
20260507102003 2 0 0.0 0.0 0.00 0.51 0.00 100 1015.0
20260507101503 2 0 0.0 0.0 0.00 0.53 0.00 100 1014.7
20260507101003 2 0 0.0 0.0 0.00 0.56 0.00 100 1014.8
20260507100503 2 0 0.0 0.0 0.00 0.58 0.00 100 1014.7
20260507100216 2 0 0.0 0.0 0.00 0.61 0.00 100 1014.6
20260507095503 2 0 0.0 0.0 0.00 0.66 0.00 97 1014.6
20260507095003 2 0 0.0 0.0 0.00 0.71 0.00 97 1014.8
20260507094503 2 0 0.0 0.0 0.00 0.71 0.00 97 1014.7
20260507094003 2 0 0.0 0.0 0.00 0.74 0.00 96 1014.7
20260507093504 2 0 0.0 0.0 0.00 0.76 0.00 96 1014.8
20260507093218 2 0 0.0 0.0 0.00 0.79 0.00 96 1014.7
20260507092503 2 0 0.0 0.0 0.00 0.81 0.00 96 1014.8
20260507092003 2 0 0.0 0.0 0.00 0.84 0.00 96 1014.9
20260507091503 2 0 0.0 0.0 0.00 0.86 0.00 96 1015.0
20260507091003 2 0 0.0 0.0 0.00 0.94 0.00 95 1014.7
20260507090503 2 0 0.0 0.0 0.00 0.94 0.00 95 1015.0
20260507090004 2 0 0.0 0.0 0.00 0.99 0.00 95 1014.9
20260507085503 2 0 0.0 0.0 0.00 1.02 0.00 95 1014.8
20260507085004 3 0 0.0 0.0 0.00 1.07 0.00 94 1014.8
20260507084719 3 0 0.0 0.0 0.00 1.07 0.00 94 1014.9
20260507084003 3 0 0.0 0.0 0.00 1.12 0.00 94 1014.8
20260507083503 3 0 0.0 0.0 0.00 1.14 0.00 94 1014.8
20260507083218 3 0 0.0 0.0 0.00 1.14 0.00 94 1014.8
20260507082503 3 0 0.0 0.0 0.00 1.17 0.00 93 1014.9
20260507082003 3 0 0.0 0.0 0.00 1.22 0.00 92 1014.8
20260507081503 3 0 0.0 0.0 0.00 1.22 0.00 91 1014.6
20260507081003 3 0 0.0 0.0 0.00 1.27 0.00 91 1014.7
20260507080503 3 88 0.0 3.2 0.00 1.30 0.00 91 1014.9
20260507080218 3 0 0.0 0.0 0.00 1.30 0.00 92 1014.7
20260507075503 3 0 0.0 0.0 0.00 1.30 0.00 92 1014.7
20260507075003 3 0 0.0 0.0 0.00 1.30 0.00 91 1015.0
20260507074503 4 0 0.0 0.0 0.00 1.30 0.00 91 1015.0
20260507074003 4 0 0.0 0.0 0.00 1.30 0.00 91 1015.0
20260507073503 4 0 0.0 0.0 0.00 1.30 0.00 90 1014.9
20260507073217 4 0 0.0 0.0 0.00 1.30 0.00 90 1014.8
20260507072503 5 0 0.0 0.0 0.00 1.30 0.00 89 1015.0
20260507072217 5 0 0.0 0.0 0.00 1.30 0.00 89 1014.9
20260507071503 5 0 0.0 0.0 0.00 1.30 0.00 89 1015.1
20260507071003 5 0 0.0 0.0 0.00 1.30 0.00 89 1015.1
20260507070503 5 0 0.0 0.0 0.00 1.30 0.00 88 1015.2
20260507070005 5 0 0.0 0.0 0.00 1.30 0.00 87 1015.2
20260507065503 5 0 0.0 0.0 0.00 1.30 0.00 87 1015.1
20260507065003 5 0 0.0 0.0 0.00 1.30 0.00 86 1015.2
20260507064503 5 0 0.0 0.0 0.00 1.30 0.00 86 1014.9
20260507064003 5 0 0.0 0.0 0.00 1.32 0.00 85 1015.1
20260507063503 5 0 0.0 0.0 0.00 1.32 0.00 84 1015.0
20260507063003 6 0 0.0 0.0 0.00 1.35 0.00 82 1014.9
20260507062503 6 87 0.0 3.2 0.00 1.35 0.00 80 1015.0
20260507062003 6 87 1.6 3.2 0.00 1.35 0.00 80 1014.9
20260507061718 6 87 0.0 3.2 0.00 1.35 0.00 80 1015.0
20260507061003 6 0 0.0 0.0 0.00 1.37 0.00 78 1015.1
20260507060503 6 0 0.0 0.0 0.00 1.37 0.00 78 1015.1
20260507060003 6 0 0.0 0.0 0.00 1.40 0.00 78 1015.1
20260507055503 6 0 0.0 0.0 0.00 1.40 0.00 78 1015.3
20260507055003 7 86 0.0 3.2 0.00 1.42 0.00 77 1015.4
20260507054503 7 0 0.0 0.0 0.00 1.42 0.00 77 1015.6
20260507054004 7 0 0.0 0.0 0.00 1.42 0.00 78 1015.4
20260507053503 7 0 0.0 0.0 0.00 1.47 0.00 76 1015.4
20260507053217 7 355 0.0 3.2 0.00 1.47 0.00 76 1015.7
20260507052718 7 0 0.0 0.0 0.00 1.47 0.00 76 1015.9
20260507052003 7 320 4.8 8.0 0.00 1.47 0.00 74 1015.8
20260507051718 7 47 0.0 4.8 0.00 1.47 0.00 76 1016.0
20260507051219 7 4 1.6 4.8 0.00 1.47 0.00 76 1016.0
20260507050503 7 325 3.2 4.8 0.00 1.52 0.00 76 1016.0
20260507050005 7 254 0.0 3.2 0.00 1.52 0.00 75 1015.7
20260507045503 7 256 0.0 3.2 0.00 1.55 0.00 75 1015.7
20260507045003 7 252 0.0 3.2 0.00 1.55 0.00 75 1016.0
20260507044717 7 257 0.0 3.2 0.00 1.57 0.00 75 1016.1
20260507044216 8 220 1.6 3.2 0.00 1.57 0.00 74 1015.8
20260507043503 8 246 0.0 3.2 0.00 1.57 0.00 74 1015.8
20260507043003 8 6 1.6 4.8 0.00 1.57 0.00 73 1015.9
20260507042503 8 25 1.6 3.2 0.00 1.57 0.00 73 1015.8
20260507042218 8 20 1.6 3.2 0.00 1.57 0.00 73 1016.0
20260507041503 8 336 3.2 4.8 0.00 1.57 0.00 72 1015.9
20260507041003 8 292 1.6 3.2 0.00 1.57 0.00 71 1015.8
20260507040503 8 0 0.0 0.0 0.00 1.57 0.00 74 1015.7
20260507040003 8 300 0.0 3.2 0.00 1.57 0.00 72 1015.8
20260507035503 8 307 3.2 4.8 0.00 1.57 1.57 71 1015.6
20260507035218 8 305 3.2 3.2 0.00 1.57 1.57 71 1015.7
20260507034717 8 307 3.2 3.2 0.00 1.57 1.57 70 1015.7
20260507034003 8 327 3.2 3.2 0.00 1.57 1.57 70 1015.7
20260507033503 8 324 1.6 4.8 0.00 1.57 1.57 70 1015.8
20260507033218 8 262 1.6 3.2 0.00 1.57 1.57 71 1015.6
20260507032503 8 345 1.6 3.2 0.00 1.57 1.57 71 1015.4
20260507032003 8 335 0.0 4.8 0.00 1.57 1.57 71 1015.7
20260507031503 8 265 1.6 4.8 0.00 1.57 1.57 72 1015.4
20260507031218 8 328 1.6 4.8 0.00 1.57 1.57 71 1015.4
20260507030503 8 327 3.2 4.8 0.00 1.57 1.57 70 1015.2
20260507030003 8 224 1.6 3.2 0.00 1.57 1.57 71 1015.4
20260507025717 8 0 0.0 0.0 0.00 1.57 1.57 71 1015.6
20260507025003 8 0 0.0 0.0 0.00 1.57 1.57 71 1015.3
20260507024503 8 22 0.0 3.2 0.00 1.57 1.57 71 1015.3
20260507024003 8 0 0.0 0.0 0.00 1.57 1.57 71 1015.1